Location: Peterborough
(44.3091°N, 78.3197°W)
Time: 19:05:05
(UTC-04:00)

Altair - Visible Passes

Search period start: 20 June 2025 00:00
Search period end: 30 June 2025 00:00
Orbit: 1502 x 1682 km, 47.2° (Epoch: 20 June)

Date Brightness Start Highest point End Pass type
(mag) Time Alt. Az. Time Alt. Az. Time Alt. Az.
20 Jun 7.4 01:03:08 10° WSW 01:12:25 89° SSE 01:22:03 10° ENE visible
20 Jun 7.7 03:08:12 10° W 03:17:36 75° N 03:27:25 10° E visible
20 Jun 7.8 22:35:01 10° SSW 22:43:14 38° SE 22:51:36 10° ENE visible
21 Jun 7.4 00:37:56 10° WSW 00:47:12 86° SSE 00:56:46 10° ENE visible
21 Jun 7.7 02:42:57 10° W 02:52:19 75° N 03:02:05 10° E visible
21 Jun 7.6 04:47:53 10° WNW 04:57:24 79° SSW 05:07:18 10° ESE visible
21 Jun 7.9 22:10:06 10° SSW 22:18:07 35° SE 22:26:16 10° ENE visible
22 Jun 7.3 00:12:45 10° WSW 00:21:58 83° SSE 00:31:30 10° ENE visible
22 Jun 7.7 02:17:42 10° W 02:27:03 75° N 02:36:46 10° E visible
22 Jun 7.6 04:22:40 10° WNW 04:32:10 83° SSW 04:42:03 10° ESE visible
22 Jun 8.0 21:45:13 10° SSW 21:53:01 33° SE 22:00:55 10° ENE visible
22 Jun 7.3 23:47:34 10° WSW 23:56:45 80° SSE 00:06:13 10° ENE visible
23 Jun 7.6 01:52:27 10° W 02:01:46 75° N 02:11:27 10° E visible
23 Jun 7.5 03:57:27 10° WNW 04:06:56 86° SSW 04:16:47 10° ESE visible
23 Jun 7.3 23:22:24 10° WSW 23:31:34 76° SSE 23:40:58 10° ENE visible
24 Jun 7.6 01:27:12 10° W 01:36:29 75° N 01:46:08 10° E visible
24 Jun 7.5 03:32:13 10° WNW 03:41:41 88° SSW 03:51:31 10° ESE visible
24 Jun 7.3 22:57:15 10° SW 23:06:21 73° SSE 23:15:42 10° ENE visible
25 Jun 7.6 01:01:57 10° W 01:11:13 76° N 01:20:50 10° E visible
25 Jun 7.5 03:07:00 10° WNW 03:16:26 89° NNE 03:26:14 10° ESE visible
25 Jun 7.4 22:32:06 10° SW 22:41:10 69° SSE 22:50:27 10° ENE visible
26 Jun 7.6 00:36:42 10° W 00:45:58 76° N 00:55:31 10° E visible
26 Jun 7.5 02:41:47 10° WNW 02:51:11 86° NNE 03:00:57 10° ESE visible
26 Jun 7.7 04:46:37 10° WNW 04:55:34 49° SW 05:04:50 10° SSE visible
26 Jun 7.4 22:06:59 10° SW 22:16:00 65° SSE 22:25:11 10° ENE visible
27 Jun 7.6 00:11:27 10° W 00:20:42 77° N 00:30:14 10° ENE visible
27 Jun 7.5 02:16:33 10° WNW 02:25:56 84° NNE 02:35:39 10° ESE visible
27 Jun 7.6 04:21:22 10° WNW 04:30:23 52° SW 04:39:45 10° SE visible
27 Jun 7.5 21:41:52 10° SW 21:50:50 62° SSE 21:59:55 10° ENE visible
27 Jun 7.6 23:46:12 10° W 23:55:27 79° N 00:04:56 10° ENE visible
28 Jun 7.5 01:51:19 10° WNW 02:00:40 82° NNE 02:10:21 10° ESE visible
28 Jun 7.6 03:56:08 10° WNW 04:05:13 55° SW 04:14:38 10° SE visible
28 Jun 7.5 23:20:58 10° W 23:30:11 80° NNW 23:39:39 10° ENE visible
29 Jun 7.5 01:26:06 10° WNW 01:35:24 80° NNE 01:45:03 10° E visible
29 Jun 7.5 03:30:54 10° WNW 03:40:02 59° SW 03:49:30 10° SE visible
29 Jun 7.5 22:55:43 10° WSW 23:04:56 82° NNW 23:14:22 10° ENE visible
